Regional Weather Roundup
Issued by NWS Cleveland, OH

Home | Current Version | Previous Version | Graphics & Text | Print | Product List | Glossary On
Versions: 1 2 3 4 5 6 7 8 9 10 11 12 13 14 15 16 17 18 19 20 21 22 23 24 25 26 27 28 29 30 31 32 33 34 35 36 37 38 39 40 41 42 43 44 45 46 47 48 49 50
000
ASUS41 KCLE 221110
RWRCLE
OHIO REGIONAL WEATHER ROUNDUP
NATIONAL WEATHER SERVICE CLEVELAND, OH
700 AM EDT TUE JUL 22 2014

NOTE: "FAIR" INDICATES FEW OR NO CLOUDS BELOW 12,000 FEET WITH NO
SIGNIFICANT WEATHER AND/OR OBSTRUCTIONS TO VISIBILITY.

OHZ001>008-015>018-024>027-034-035-043-044-221200-
   NORTHWEST OHIO

CITY           SKY/WX    TMP DP  RH WIND       PRES   REMARKS
DEFIANCE       FOG       62  59  90 CALM      30.12R VSB 1/2
FINDLAY        CLEAR     66  62  87 SE3       30.12R FOG
TOLEDO EXPRESS CLEAR     61  60  97 CALM      30.11S FOG
TOLEDO EXEC    CLEAR     65  58  78 S3        30.12S
LIMA           CLEAR     66  63  90 S3        30.13R FOG
$$

OHZ009>014-019>023-028>033-038-089-221200-
   NORTHEAST OHIO

CITY           SKY/WX    TMP DP  RH WIND       PRES   REMARKS
CLE-HOPKINS    CLEAR     63  59  87 CALM      30.15R
CLE-LAKEFRONT  CLEAR     70  62  76 SE9       30.11R
CUY CO. ARPT   PTCLDY    70  66  88 S8        30.14
LORAIN-ELYRIA  CLEAR     67  60  78 CALM      30.14R
ASHTABULA      CLEAR     63  61  93 CALM      30.14S FOG
AKRON-CANTON   CLEAR     69  64  84 CALM      30.15R HAZE
WOOSTER        CLEAR     62  60  93 CALM      30.16R FOG
MANSFIELD      CLEAR     65  62  90 S3        30.16R
YOUNGSTOWN     CLEAR     65  63  93 E5        30.14S FOG
$$

OHZ042-051>053-060>062-070>072-077>081-221200-
  SOUTHWEST OHIO

CITY           SKY/WX    TMP DP  RH WIND       PRES   REMARKS
CINC-COVINGTON PTCLDY    70  66  87 CALM      30.13R FOG
CINC-LUNKEN    CLEAR     66  66 100 CALM      30.12R FOG
HAMILTON       CLEAR     65  64  97 CALM      30.13R FOG
DAYTON         PTCLDY    68  64  87 CALM      30.15R
WRIGHT-PAT AFB CLEAR     65  64  96 N2        30.13R
DAYTON GENERAL CLEAR     67  65  93 NE3       30.13R
WILMINGTON     CLEAR     64  62  93 CALM      30.13R FOG
$$

OHZ036-037-039>041-045>050-054>059-063>069-073>076-082>088-221200-
  CENTRAL AND SOUTHEAST OHIO

CITY           SKY/WX    TMP DP  RH WIND       PRES   REMARKS
COLUMBUS       PTCLDY    71  66  84 CALM      30.12R
OSU AIRPORT    CLEAR     67  66  97 CALM      30.13R FOG
BOLTON FIELD   NOT AVBL
RICKENBACK AFB NOT AVBL
NEWARK         PTCLDY    64  63  96 CALM      30.14R FOG
MARION         CLEAR     65  61  87 CALM      30.14R FOG
LANCASTER      CLOUDY    66  64  93 CALM      30.14R FOG
ZANESVILLE     FOG       65  64  97 CALM      30.14R VSB 1/4
NEW PHILLY     FOG       64  64 100 CALM      30.15R VSB 1/4
$$


USA.gov is the U.S. government's official web portal to all federal, state and local government web resources and services.